| time (UTC) | temp F | wind direction | speed MPH | gust MPH | rain 1hr in | rain 24hr in | rain mn in | humidity % | barometer mb |
| 20260506203320 | 66 | 256 | 1.0 | 6.0 | 0.00 | 0.05 | 0.05 | 84 | 1006.8 |
| 20260506202320 | 66 | 260 | 2.0 | 4.0 | 0.00 | 0.05 | 0.05 | 85 | 1007.1 |
| 20260506201820 | 66 | 253 | 1.0 | 4.0 | 0.00 | 0.05 | 0.05 | 85 | 1007.1 |
| 20260506201320 | 66 | 251 | 0.0 | 7.0 | 0.00 | 0.05 | 0.05 | 86 | 1007.4 |
| 20260506200820 | 66 | 245 | 3.0 | 7.0 | 0.00 | 0.05 | 0.05 | 85 | 1007.2 |
| 20260506200320 | 65 | 219 | 1.0 | 6.0 | 0.00 | 0.05 | 0.05 | 86 | 1007.5 |
| 20260506195820 | 65 | 239 | 3.0 | 7.0 | 0.00 | 0.05 | 0.05 | 86 | 1007.5 |
| 20260506195320 | 65 | 218 | 1.0 | 7.0 | 0.00 | 0.05 | 0.05 | 86 | 1007.6 |
| 20260506194821 | 65 | 276 | 3.0 | 6.0 | 0.00 | 0.05 | 0.05 | 87 | 1007.7 |
| 20260506194321 | 65 | 240 | 1.0 | 3.0 | 0.00 | 0.05 | 0.05 | 88 | 1007.5 |
| 20260506193822 | 65 | 232 | 0.0 | 3.0 | 0.00 | 0.05 | 0.05 | 88 | 1007.6 |
| 20260506192820 | 64 | 260 | 1.0 | 4.0 | 0.00 | 0.05 | 0.05 | 89 | 1007.5 |
| 20260506192320 | 64 | 248 | 2.0 | 4.0 | 0.00 | 0.05 | 0.05 | 89 | 1007.6 |
| 20260506191820 | 64 | 252 | 1.0 | 6.0 | 0.00 | 0.05 | 0.05 | 89 | 1007.7 |
| 20260506191320 | 64 | 247 | 4.0 | 6.0 | 0.00 | 0.05 | 0.05 | 89 | 1007.7 |
| 20260506190821 | 64 | 231 | 4.0 | 6.0 | 0.00 | 0.05 | 0.05 | 89 | 1007.6 |
| 20260506190321 | 64 | 222 | 2.0 | 8.0 | 0.00 | 0.05 | 0.05 | 89 | 1008.0 |
| 20260506185820 | 64 | 259 | 4.0 | 8.0 | 0.00 | 0.05 | 0.05 | 89 | 1007.6 |
| 20260506185320 | 64 | 99 | 1.0 | 6.0 | 0.00 | 0.05 | 0.05 | 89 | 1008.0 |
| 20260506184820 | 64 | 215 | 3.0 | 7.0 | 0.00 | 0.05 | 0.05 | 89 | 1007.7 |
| 20260506184320 | 64 | 215 | 2.0 | 7.0 | 0.00 | 0.05 | 0.05 | 88 | 1008.0 |
| 20260506183821 | 65 | 290 | 0.0 | 6.0 | 0.00 | 0.05 | 0.05 | 88 | 1008.2 |
| 20260506183321 | 65 | 273 | 2.0 | 10.0 | 0.00 | 0.05 | 0.05 | 87 | 1008.1 |
| 20260506182822 | 65 | 249 | 1.0 | 10.0 | 0.00 | 0.05 | 0.05 | 86 | 1008.0 |
| 20260506182321 | 67 | 237 | 1.0 | 11.0 | 0.00 | 0.05 | 0.05 | 83 | 1008.0 |
| 20260506181821 | 68 | 324 | 5.0 | 11.0 | 0.00 | 0.05 | 0.05 | 80 | 1007.9 |
| 20260506181322 | 67 | 179 | 3.0 | 8.0 | 0.00 | 0.05 | 0.05 | 80 | 1008.1 |
| 20260506180822 | 67 | 272 | 1.0 | 6.0 | 0.00 | 0.05 | 0.05 | 81 | 1008.2 |
| 20260506180321 | 67 | 230 | 0.0 | 4.0 | 0.01 | 0.05 | 0.05 | 81 | 1007.8 |
| 20260506175819 | 67 | 158 | 1.0 | 4.0 | 0.01 | 0.05 | 0.05 | 82 | 1008.1 |
| 20260506175319 | 66 | 255 | 2.0 | 4.0 | 0.01 | 0.05 | 0.05 | 83 | 1008.0 |
| 20260506174819 | 66 | 241 | 0.0 | 4.0 | 0.01 | 0.05 | 0.05 | 84 | 1008.1 |
| 20260506174319 | 65 | 127 | 1.0 | 4.0 | 0.02 | 0.05 | 0.05 | 86 | 1008.0 |
| 20260506173819 | 65 | 257 | 0.0 | 4.0 | 0.02 | 0.05 | 0.05 | 89 | 1007.9 |
| 20260506172819 | 66 | 24 | 0.0 | 2.0 | 0.03 | 0.05 | 0.05 | 90 | 1008.1 |
| 20260506172319 | 65 | 236 | 1.0 | 2.0 | 0.03 | 0.05 | 0.05 | 90 | 1008.2 |
| 20260506171819 | 65 | 243 | 1.0 | 7.0 | 0.04 | 0.05 | 0.05 | 91 | 1008.2 |
| 20260506171319 | 64 | 260 | 0.0 | 7.0 | 0.04 | 0.05 | 0.05 | 90 | 1008.2 |
| 20260506170819 | 64 | 286 | 0.0 | 3.0 | 0.05 | 0.05 | 0.05 | 91 | 1008.4 |
| 20260506170319 | 64 | 270 | 0.0 | 3.0 | 0.04 | 0.04 | 0.04 | 91 | 1008.6 |
| 20260506165819 | 64 | 358 | 0.0 | 3.0 | 0.04 | 0.04 | 0.04 | 90 | 1008.9 |
| 20260506165319 | 64 | 209 | 1.0 | 2.0 | 0.04 | 0.04 | 0.04 | 89 | 1009.2 |
| 20260506164819 | 65 | 232 | 0.0 | 3.0 | 0.04 | 0.04 | 0.04 | 89 | 1009.5 |
| 20260506164319 | 64 | 214 | 1.0 | 3.0 | 0.03 | 0.03 | 0.03 | 88 | 1009.7 |
| 20260506163819 | 64 | 253 | 2.0 | 4.0 | 0.03 | 0.03 | 0.03 | 87 | 1009.5 |
| 20260506163318 | 65 | 279 | 1.0 | 4.0 | 0.02 | 0.02 | 0.02 | 87 | 1009.4 |
| 20260506162818 | 65 | 187 | 1.0 | 2.0 | 0.02 | 0.02 | 0.02 | 86 | 1009.6 |
| 20260506162318 | 65 | 260 | 2.0 | 4.0 | 0.02 | 0.02 | 0.02 | 85 | 1009.4 |
| 20260506161818 | 66 | 230 | 0.0 | 4.0 | 0.01 | 0.01 | 0.01 | 83 | 1009.8 |
| 20260506161318 | 67 | 179 | 1.0 | 7.0 | 0.01 | 0.01 | 0.01 | 80 | 1009.8 |
| 20260506160819 | 67 | 246 | 2.0 | 8.0 | 0.00 | 0.00 | 0.00 | 77 | 1009.7 |
| 20260506155808 | 70 | 152 | 1.0 | 7.0 | 0.00 | 0.00 | 0.00 | 71 | 1010.0 |
| 20260506155308 | 70 | 33 | 1.0 | 8.0 | 0.00 | 0.00 | 0.00 | 68 | 1009.6 |
| 20260506154805 | 71 | 191 | 2.0 | 8.0 | 0.00 | 0.00 | 0.00 | 67 | 1009.8 |
| 20260506153806 | 72 | 271 | 7.0 | 9.0 | 0.00 | 0.00 | 0.00 | 65 | 1009.7 |
| 20260506152807 | 72 | 356 | 1.0 | 9.0 | 0.00 | 0.00 | 0.00 | 65 | 1009.4 |
| 20260506152307 | 71 | 261 | 4.0 | 7.0 | 0.00 | 0.00 | 0.00 | 66 | 1009.5 |
| 20260506151807 | 71 | 194 | 4.0 | 9.0 | 0.00 | 0.00 | 0.00 | 66 | 1009.7 |
| 20260506151307 | 71 | 244 | 2.0 | 9.0 | 0.00 | 0.00 | 0.00 | 66 | 1009.7 |
| 20260506150807 | 71 | 136 | 2.0 | 8.0 | 0.00 | 0.00 | 0.00 | 66 | 1009.8 |
| 20260506145807 | 72 | 247 | 5.0 | 14.0 | 0.00 | 0.00 | 0.00 | 65 | 1009.7 |
| 20260506145307 | 72 | 333 | 3.0 | 14.0 | 0.00 | 0.00 | 0.00 | 65 | 1009.8 |
| 20260506144807 | 72 | 249 | 2.0 | 11.0 | 0.00 | 0.00 | 0.00 | 65 | 1010.0 |
| 20260506144308 | 73 | 359 | 2.0 | 7.0 | 0.00 | 0.00 | 0.00 | 64 | 1010.1 |
| 20260506143306 | 73 | 221 | 2.0 | 9.0 | 0.00 | 0.00 | 0.00 | 65 | 1009.8 |
| 20260506142806 | 73 | 247 | 6.0 | 9.0 | 0.00 | 0.00 | 0.00 | 64 | 1009.8 |
| 20260506142306 | 72 | 226 | 1.0 | 6.0 | 0.00 | 0.00 | 0.00 | 66 | 1009.6 |
| 20260506141806 | 71 | 169 | 1.0 | 8.0 | 0.00 | 0.00 | 0.00 | 66 | 1009.8 |
| 20260506140307 | 71 | 265 | 2.0 | 13.0 | 0.00 | 0.00 | 0.00 | 67 | 1009.9 |
| 20260506135808 | 71 | 265 | 5.0 | 9.0 | 0.00 | 0.00 | 0.00 | 67 | 1009.9 |
| 20260506135307 | 71 | 196 | 3.0 | 7.0 | 0.00 | 0.00 | 0.00 | 67 | 1009.7 |
| 20260506134807 | 71 | 220 | 1.0 | 9.0 | 0.00 | 0.00 | 0.00 | 67 | 1009.3 |
| 20260506134308 | 71 | 255 | 2.0 | 9.0 | 0.00 | 0.00 | 0.00 | 67 | 1009.7 |
| 20260506133306 | 71 | 236 | 2.0 | 8.0 | 0.00 | 0.00 | 0.00 | 67 | 1010.0 |
| 20260506132806 | 71 | 244 | 4.0 | 8.0 | 0.00 | 0.00 | 0.00 | 68 | 1009.9 |
| 20260506131806 | 71 | 223 | 2.0 | 11.0 | 0.00 | 0.00 | 0.00 | 68 | 1009.9 |
| 20260506131306 | 70 | 123 | 4.0 | 11.0 | 0.00 | 0.00 | 0.00 | 69 | 1010.1 |
| 20260506130806 | 70 | 306 | 1.0 | 7.0 | 0.00 | 0.00 | 0.00 | 70 | 1009.9 |
| 20260506125806 | 69 | 301 | 2.0 | 9.0 | 0.00 | 0.00 | 0.00 | 71 | 1009.7 |
| 20260506125307 | 69 | 179 | 2.0 | 9.0 | 0.00 | 0.00 | 0.00 | 71 | 1009.9 |
| 20260506124306 | 69 | 238 | 2.0 | 8.0 | 0.00 | 0.00 | 0.00 | 71 | 1009.8 |
| 20260506123806 | 69 | 263 | 5.0 | 8.0 | 0.00 | 0.00 | 0.00 | 71 | 1010.0 |
| 20260506123307 | 68 | 306 | 1.0 | 6.0 | 0.00 | 0.00 | 0.00 | 72 | 1010.0 |
| 20260506122806 | 67 | 291 | 1.0 | 7.0 | 0.00 | 0.00 | 0.00 | 74 | 1009.8 |
| 20260506122306 | 67 | 171 | 1.0 | 6.0 | 0.00 | 0.00 | 0.00 | 74 | 1009.8 |
| 20260506121306 | 67 | 67 | 2.0 | 7.0 | 0.00 | 0.00 | 0.00 | 74 | 1010.2 |
| 20260506120807 | 67 | 231 | 1.0 | 6.0 | 0.00 | 0.00 | 0.00 | 74 | 1010.1 |
| 20260506120307 | 67 | 330 | 1.0 | 7.0 | 0.00 | 0.00 | 0.00 | 75 | 1010.1 |
| 20260506114754 | 67 | 246 | 2.0 | 7.0 | 0.00 | 0.00 | 0.00 | 75 | 1010.1 |
| 20260506114254 | 67 | 225 | 3.0 | 6.0 | 0.00 | 0.00 | 0.00 | 76 | 1010.6 |
| 20260506113755 | 67 | 75 | 1.0 | 6.0 | 0.00 | 0.00 | 0.00 | 76 | 1010.1 |
| 20260506113242 | 67 | 73 | 2.0 | 6.0 | 0.00 | 0.00 | 0.00 | 76 | 1010.0 |
| 20260506112741 | 67 | 244 | 2.0 | 4.0 | 0.00 | 0.00 | 0.00 | 76 | 1010.4 |
| 20260506112241 | 66 | 277 | 1.0 | 4.0 | 0.00 | 0.00 | 0.00 | 77 | 1010.3 |
| 20260506111729 | 65 | 339 | 2.0 | 4.0 | 0.00 | 0.00 | 0.00 | 78 | 1010.3 |
| 20260506111229 | 65 | 229 | 3.0 | 8.0 | 0.00 | 0.00 | 0.00 | 78 | 1010.4 |
| 20260506110217 | 65 | 85 | 1.0 | 8.0 | 0.00 | 0.00 | 0.00 | 79 | 1010.0 |
| 20260506105718 | 65 | 238 | 2.0 | 9.0 | 0.00 | 0.00 | 0.00 | 79 | 1010.1 |
| 20260506105217 | 64 | 269 | 1.0 | 9.0 | 0.00 | 0.00 | 0.00 | 80 | 1010.1 |
| 20260506104717 | 64 | 315 | 2.0 | 4.0 | 0.00 | 0.00 | 0.00 | 81 | 1010.2 |
| 20260506104218 | 64 | 10 | 1.0 | 3.0 | 0.00 | 0.00 | 0.00 | 81 | 1010.0 |
| 20260506103718 | 64 | 260 | 0.0 | 4.0 | 0.00 | 0.00 | 0.00 | 81 | 1010.2 |
| 20260506103217 | 64 | 243 | 0.0 | 6.0 | 0.00 | 0.00 | 0.00 | 81 | 1010.0 |
| 20260506102217 | 64 | 59 | 0.0 | 4.0 | 0.00 | 0.00 | 0.00 | 81 | 1010.2 |
| 20260506101717 | 64 | 329 | 2.0 | 6.0 | 0.00 | 0.00 | 0.00 | 81 | 1010.0 |
| 20260506100717 | 64 | 179 | 2.0 | 7.0 | 0.00 | 0.00 | 0.00 | 81 | 1009.9 |
| 20260506100217 | 64 | 277 | 1.0 | 4.0 | 0.00 | 0.00 | 0.00 | 81 | 1009.9 |
| 20260506095217 | 64 | 217 | 2.0 | 6.0 | 0.00 | 0.00 | 0.00 | 81 | 1009.8 |
| 20260506094705 | 64 | 260 | 2.0 | 6.0 | 0.00 | 0.00 | 0.00 | 81 | 1010.1 |
| 20260506094204 | 64 | 320 | 1.0 | 7.0 | 0.00 | 0.00 | 0.00 | 81 | 1009.8 |
| 20260506093705 | 64 | 8 | 1.0 | 7.0 | 0.00 | 0.00 | 0.00 | 81 | 1009.7 |
| 20260506093206 | 64 | 338 | 1.0 | 3.0 | 0.00 | 0.00 | 0.00 | 81 | 1009.6 |
| 20260506092705 | 64 | 193 | 2.0 | 3.0 | 0.00 | 0.00 | 0.00 | 82 | 1010.0 |
| 20260506092205 | 64 | 22 | 2.0 | 3.0 | 0.00 | 0.00 | 0.00 | 82 | 1009.8 |
| 20260506091705 | 64 | 349 | 0.0 | 3.0 | 0.00 | 0.00 | 0.00 | 81 | 1009.8 |
| 20260506090707 | 64 | 30 | 3.0 | 4.0 | 0.00 | 0.00 | 0.00 | 81 | 1009.9 |
| 20260506085704 | 64 | 357 | 1.0 | 6.0 | 0.00 | 0.00 | 0.00 | 81 | 1009.9 |
| 20260506085205 | 64 | 182 | 2.0 | 6.0 | 0.00 | 0.00 | 0.00 | 81 | 1010.0 |
| 20260506084706 | 64 | 123 | 1.0 | 3.0 | 0.00 | 0.00 | 0.00 | 81 | 1009.8 |
| 20260506083705 | 64 | 245 | 0.0 | 3.0 | 0.00 | 0.00 | 0.00 | 81 | 1010.1 |
| 20260506083205 | 64 | 107 | 1.0 | 3.0 | 0.00 | 0.00 | 0.00 | 81 | 1010.0 |
| 20260506082705 | 64 | 301 | 1.0 | 8.0 | 0.00 | 0.00 | 0.00 | 81 | 1010.0 |
| 20260506082205 | 64 | 184 | 4.0 | 8.0 | 0.00 | 0.00 | 0.00 | 81 | 1010.3 |
| 20260506081706 | 64 | 231 | 1.0 | 9.0 | 0.00 | 0.00 | 0.00 | 80 | 1010.1 |
| 20260506081207 | 64 | 203 | 1.0 | 9.0 | 0.00 | 0.00 | 0.00 | 80 | 1010.3 |
| 20260506080707 | 64 | 156 | 1.0 | 3.0 | 0.00 | 0.00 | 0.00 | 80 | 1010.1 |
| 20260506080207 | 64 | 186 | 1.0 | 6.0 | 0.00 | 0.00 | 0.00 | 80 | 1010.1 |
| 20260506072705 | 65 | 42 | 1.0 | 7.0 | 0.00 | 0.00 | 0.00 | 79 | 1010.3 |
| 20260506071705 | 65 | 211 | 0.0 | 4.0 | 0.00 | 0.00 | 0.00 | 79 | 1010.4 |
| 20260506071206 | 65 | 27 | 1.0 | 2.0 | 0.00 | 0.00 | 0.00 | 79 | 1010.4 |
| 20260506070706 | 65 | 239 | 0.0 | 4.0 | 0.00 | 0.00 | 0.00 | 78 | 1010.3 |
| 20260506070206 | 65 | 218 | 0.0 | 4.0 | 0.00 | 0.00 | 0.00 | 77 | 1010.4 |
| 20260506062206 | 66 | 207 | 1.0 | 3.0 | 0.00 | 0.00 | 0.00 | 76 | 1010.5 |
| 20260506061706 | 66 | 299 | 0.0 | 2.0 | 0.00 | 0.00 | 0.00 | 76 | 1010.4 |
| 20260506061206 | 66 | 247 | 0.0 | 3.0 | 0.00 | 0.00 | 0.00 | 76 | 1010.4 |
| 20260506060705 | 66 | 98 | 2.0 | 3.0 | 0.00 | 0.00 | 0.00 | 76 | 1010.3 |
| 20260506060205 | 66 | 310 | 1.0 | 4.0 | 0.00 | 0.00 | 0.00 | 75 | 1010.2 |
| 20260506051130 | 67 | 158 | 1.0 | 6.0 | 0.00 | 0.00 | 0.00 | 73 | 1010.8 |
| 20260506050118 | 67 | 278 | 0.0 | 10.0 | 0.00 | 0.00 | 0.00 | 72 | 1010.7 |
| 20260506045118 | 67 | 253 | 1.0 | 7.0 | 0.00 | 0.00 | 0.00 | 71 | 1010.8 |
| 20260506044618 | 68 | 183 | 1.0 | 7.0 | 0.00 | 0.00 | 0.00 | 71 | 1010.8 |
| 20260506044117 | 67 | 249 | 0.0 | 4.0 | 0.00 | 0.00 | 0.00 | 71 | 1010.8 |
| 20260506043617 | 68 | 207 | 2.0 | 7.0 | 0.00 | 0.00 | 0.00 | 70 | 1011.1 |
| 20260506042618 | 68 | 56 | 1.0 | 7.0 | 0.00 | 0.00 | 0.00 | 69 | 1011.0 |
| 20260506042119 | 68 | 253 | 2.0 | 6.0 | 0.00 | 0.00 | 0.00 | 70 | 1010.7 |
| 20260506041618 | 68 | 9 | 1.0 | 6.0 | 0.00 | 0.00 | 0.00 | 69 | 1010.9 |
| 20260506041118 | 68 | 207 | 2.0 | 4.0 | 0.00 | 0.00 | 0.00 | 69 | 1010.8 |
| 20260506040118 | 68 | 137 | 1.0 | 9.0 | 0.00 | 0.00 | 0.00 | 68 | 1010.9 |
| 20260506035619 | 68 | 249 | 2.0 | 9.0 | 0.00 | 0.00 | 0.00 | 68 | 1010.6 |
| 20260506035118 | 68 | 311 | 1.0 | 7.0 | 0.00 | 0.00 | 0.00 | 68 | 1010.7 |
| 20260506034618 | 68 | 2 | 1.0 | 4.0 | 0.00 | 0.00 | 0.00 | 67 | 1011.1 |
| 20260506034119 | 69 | 325 | 1.0 | 8.0 | 0.00 | 0.00 | 0.00 | 67 | 1010.9 |
| 20260506033618 | 69 | 109 | 1.0 | 8.0 | 0.00 | 0.00 | 0.00 | 66 | 1010.7 |
| 20260506033118 | 69 | 105 | 2.0 | 7.0 | 0.00 | 0.00 | 0.00 | 66 | 1010.9 |
| 20260506032618 | 69 | 272 | 3.0 | 6.0 | 0.00 | 0.00 | 0.00 | 66 | 1010.6 |
| 20260506032117 | 69 | 336 | 1.0 | 8.0 | 0.00 | 0.00 | 0.00 | 65 | 1010.8 |
| 20260506031617 | 69 | 313 | 2.0 | 8.0 | 0.00 | 0.00 | 0.00 | 64 | 1010.8 |
| 20260506030617 | 70 | 257 | 4.0 | 8.0 | 0.00 | 0.00 | 0.00 | 63 | 1010.5 |
| 20260506030117 | 70 | 325 | 2.0 | 7.0 | 0.00 | 0.00 | 0.00 | 63 | 1010.6 |
| 20260506025619 | 70 | 11 | 1.0 | 7.0 | 0.00 | 0.00 | 0.00 | 62 | 1011.2 |
| 20260506025119 | 70 | 160 | 1.0 | 7.0 | 0.00 | 0.00 | 0.00 | 61 | 1010.7 |
| 20260506024118 | 70 | 289 | 1.0 | 6.0 | 0.00 | 0.00 | 0.00 | 61 | 1010.9 |
| 20260506023618 | 70 | 151 | 1.0 | 6.0 | 0.00 | 0.00 | 0.00 | 61 | 1010.8 |
| 20260506023117 | 71 | 328 | 2.0 | 7.0 | 0.00 | 0.00 | 0.00 | 60 | 1010.8 |
| 20260506022617 | 71 | 179 | 1.0 | 7.0 | 0.00 | 0.00 | 0.00 | 60 | 1010.7 |
| 20260506020618 | 71 | 116 | 2.0 | 8.0 | 0.00 | 0.00 | 0.00 | 60 | 1010.7 |
| 20260506020118 | 71 | 333 | 1.0 | 6.0 | 0.00 | 0.00 | 0.00 | 60 | 1010.9 |
| 20260506015618 | 71 | 154 | 2.0 | 7.0 | 0.00 | 0.00 | 0.00 | 60 | 1010.4 |
| 20260506015118 | 71 | 36 | 3.0 | 7.0 | 0.00 | 0.00 | 0.00 | 60 | 1010.5 |
| 20260506014617 | 71 | 211 | 1.0 | 7.0 | 0.00 | 0.00 | 0.00 | 59 | 1010.4 |
| 20260506014117 | 72 | 105 | 1.0 | 10.0 | 0.00 | 0.00 | 0.00 | 59 | 1010.5 |
| 20260506013617 | 72 | 309 | 5.0 | 13.0 | 0.00 | 0.00 | 0.00 | 59 | 1010.7 |
| 20260506013117 | 72 | 82 | 3.0 | 13.0 | 0.00 | 0.00 | 0.00 | 59 | 1010.4 |
| 20260506012617 | 72 | 59 | 0.0 | 4.0 | 0.00 | 0.00 | 0.00 | 58 | 1010.6 |
| 20260506011106 | 73 | 165 | 2.0 | 7.0 | 0.00 | 0.00 | 0.00 | 58 | 1010.2 |
| 20260506010606 | 73 | 164 | 2.0 | 8.0 | 0.00 | 0.00 | 0.00 | 57 | 1010.1 |
| 20260506005606 | 74 | 57 | 2.0 | 6.0 | 0.00 | 0.00 | 0.00 | 55 | 1009.9 |
| 20260506005106 | 74 | 58 | 1.0 | 9.0 | 0.00 | 0.00 | 0.00 | 53 | 1009.7 |
| 20260506004606 | 75 | 192 | 1.0 | 9.0 | 0.00 | 0.00 | 0.00 | 50 | 1009.5 |
| 20260506004106 | 76 | 19 | 1.0 | 8.0 | 0.00 | 0.00 | 0.00 | 48 | 1009.7 |
| 20260506002605 | 76 | 43 | 2.0 | 4.0 | 0.00 | 0.00 | 0.00 | 46 | 1009.7 |
| 20260506001605 | 77 | 77 | 1.0 | 8.0 | 0.00 | 0.00 | 0.00 | 45 | 1009.4 |
| 20260506000606 | 78 | 163 | 1.0 | 4.0 | 0.00 | 0.00 | 0.00 | 44 | 1009.3 |
| 20260506000108 | 78 | 223 | 1.0 | 7.0 | 0.00 | 0.00 | 0.00 | 43 | 1009.6 |
| 20260505235606 | 78 | 306 | 4.0 | 7.0 | 0.00 | 0.00 | 0.00 | 43 | 1009.1 |
| 20260505235105 | 78 | 68 | 4.0 | 8.0 | 0.00 | 0.00 | 0.00 | 43 | 1009.3 |
| 20260505233606 | 79 | 294 | 2.0 | 7.0 | 0.00 | 0.00 | 0.00 | 42 | 1009.2 |
| 20260505233105 | 79 | 35 | 1.0 | 10.0 | 0.00 | 0.00 | 0.00 | 41 | 1009.1 |
| 20260505232605 | 79 | 275 | 4.0 | 10.0 | 0.00 | 0.00 | 0.00 | 41 | 1009.1 |
| 20260505231554 | 80 | 250 | 1.0 | 4.0 | 0.00 | 0.00 | 0.00 | 39 | 1008.7 |
| 20260505231053 | 81 | 250 | 1.0 | 9.0 | 0.00 | 0.00 | 0.00 | 37 | 1008.5 |
| 20260505230553 | 81 | 219 | 2.0 | 9.0 | 0.00 | 0.00 | 0.00 | 36 | 1008.7 |
| 20260505225541 | 81 | 223 | 4.0 | 13.0 | 0.00 | 0.00 | 0.00 | 34 | 1008.4 |
| 20260505224530 | 81 | 221 | 4.0 | 13.0 | 0.00 | 0.00 | 0.00 | 34 | 1008.4 |
| 20260505224029 | 82 | 121 | 3.0 | 14.0 | 0.00 | 0.00 | 0.00 | 34 | 1008.3 |
| 20260505223528 | 82 | 163 | 2.0 | 14.0 | 0.00 | 0.00 | 0.00 | 33 | 1008.6 |
| 20260505223017 | 82 | 224 | 3.0 | 13.0 | 0.00 | 0.00 | 0.00 | 32 | 1008.5 |
| 20260505222518 | 83 | 239 | 5.0 | 15.0 | 0.00 | 0.00 | 0.00 | 31 | 1008.5 |
| 20260505222019 | 83 | 203 | 6.0 | 17.0 | 0.00 | 0.00 | 0.00 | 31 | 1008.4 |
| 20260505221518 | 83 | 61 | 2.0 | 17.0 | 0.00 | 0.00 | 0.00 | 30 | 1008.1 |
| 20260505221017 | 84 | 138 | 5.0 | 15.0 | 0.00 | 0.00 | 0.00 | 30 | 1008.5 |
| 20260505220517 | 84 | 289 | 6.0 | 11.0 | 0.00 | 0.00 | 0.00 | 30 | 1008.2 |
| 20260505220018 | 84 | 265 | 4.0 | 11.0 | 0.00 | 0.00 | 0.00 | 31 | 1008.0 |
| 20260505215506 | 85 | 16 | 3.0 | 11.0 | 0.00 | 0.00 | 0.00 | 32 | 1008.0 |
| 20260505215007 | 84 | 107 | 2.0 | 7.0 | 0.00 | 0.00 | 0.00 | 35 | 1007.8 |
| 20260505214508 | 85 | 152 | 2.0 | 9.0 | 0.00 | 0.00 | 0.00 | 36 | 1007.7 |
| 20260505214007 | 84 | 245 | 2.0 | 11.0 | 0.00 | 0.00 | 0.00 | 36 | 1008.0 |
| 20260505213505 | 84 | 141 | 3.0 | 11.0 | 0.00 | 0.00 | 0.00 | 36 | 1007.8 |
| 20260505213007 | 84 | 267 | 2.0 | 10.0 | 0.00 | 0.00 | 0.00 | 37 | 1007.7 |
| 20260505211953 | 85 | 203 | 3.0 | 14.0 | 0.00 | 0.00 | 0.00 | 37 | 1007.8 |
| 20260505210953 | 85 | 240 | 1.0 | 14.0 | 0.00 | 0.00 | 0.00 | 35 | 1007.9 |
| 20260505210453 | 84 | 330 | 3.0 | 11.0 | 0.00 | 0.00 | 0.00 | 35 | 1007.9 |
| 20260505205954 | 85 | 243 | 2.0 | 16.0 | 0.00 | 0.00 | 0.00 | 35 | 1007.9 |
| 20260505205454 | 85 | 103 | 8.0 | 16.0 | 0.00 | 0.00 | 0.00 | 35 | 1007.9 |
| 20260505204953 | 85 | 187 | 3.0 | 14.0 | 0.00 | 0.00 | 0.00 | 35 | 1007.7 |
| 20260505204441 | 85 | 60 | 2.0 | 10.0 | 0.00 | 0.00 | 0.00 | 36 | 1007.7 |